GW5858 Weather Reports


Display with metric or nautical units.
time (UTC)temp
F
wind
direction
speed
MPH
gust
MPH
rain 1hr
in
rain 24hr
in
rain mn
in
humidity
%
barometer
mb
20260509114526 50 304 0.0 1.0 0.00 0.02 0.00 85 1007.7
20260509113024 48 304 0.0 2.0 0.00 0.03 0.00 86 1007.7
20260509111519 46 304 0.0 0.0 0.00 0.06 0.00 86 1007.7
20260509110010 45 304 0.0 0.0 0.00 0.07 0.00 87 1007.9
20260509104524 43 304 0.0 0.0 0.00 0.07 0.00 86 1007.8
20260509103007 43 304 0.0 0.0 0.00 0.08 0.00 86 1007.7
20260509101505 42 304 0.0 0.0 0.00 0.09 0.00 87 1007.8
20260509100038 42 304 0.0 0.0 0.00 0.09 0.00 86 1007.7
20260509094516 41 304 0.0 0.0 0.00 0.09 0.00 85 1007.6
20260509093020 42 304 0.0 0.0 0.00 0.09 0.00 84 1007.7
20260509091509 42 304 0.0 0.0 0.00 0.09 0.00 83 1007.7
20260509090008 42 304 0.0 0.0 0.00 0.09 0.00 83 1007.7
20260509084515 42 304 0.0 0.0 0.00 0.09 0.00 81 1007.8
20260509083009 43 304 0.0 0.0 0.00 0.09 0.00 79 1007.9
20260509081510 43 304 0.0 0.0 0.00 0.09 0.00 79 1008.0
20260509080010 43 304 0.0 0.0 0.00 0.09 0.00 78 1008.0
20260509074521 42 304 0.0 0.0 0.00 0.09 0.00 77 1008.3
20260509073015 42 304 0.0 2.0 0.00 0.09 0.00 76 1008.4
20260509071518 42 304 0.0 2.0 0.00 0.09 0.00 75 1008.5
20260509070009 42 304 0.0 1.0 0.00 0.09 0.00 74 1008.5
20260509064528 42 304 0.0 0.0 0.00 0.09 0.00 73 1008.7
20260509063023 42 304 0.0 2.0 0.00 0.09 0.00 73 1008.8
20260509061525 42 304 0.0 2.0 0.00 0.09 0.00 72 1009.1
20260509060020 42 304 0.0 2.0 0.00 0.09 0.00 73 1009.3
20260509054522 42 304 0.0 2.0 0.00 0.09 0.00 72 1009.5
20260509053013 42 304 0.0 2.0 0.00 0.09 0.00 73 1009.7
20260509051533 42 304 0.0 0.0 0.00 0.09 0.00 72 1009.9
20260509050030 42 304 0.0 2.0 0.00 0.09 0.00 71 1010.0
20260509044540 43 304 0.0 2.0 0.00 0.09 0.00 69 1010.1
20260509043022 43 304 0.0 1.0 0.00 0.09 0.00 70 1010.1
20260509041522 43 304 0.0 2.0 0.00 0.09 0.00 69 1010.4
20260509040019 42 304 0.0 2.0 0.00 0.09 0.00 71 1010.4
20260509034516 42 304 0.0 1.0 0.00 0.09 0.09 70 1010.6
20260509033028 42 304 0.0 1.0 0.00 0.09 0.09 70 1010.8
20260509031527 42 304 0.0 0.0 0.00 0.09 0.09 68 1010.8
20260509030030 43 304 0.0 0.0 0.00 0.09 0.09 68 1010.9
20260509024522 43 304 0.0 0.0 0.00 0.09 0.09 65 1010.9
20260509023019 44 304 0.0 0.0 0.00 0.09 0.09 62 1010.9
20260509021519 45 304 0.0 0.0 0.00 0.09 0.09 58 1010.9
20260509020008 45 304 0.0 0.0 0.00 0.10 0.09 56 1010.8
20260509014508 47 304 0.0 0.0 0.00 0.10 0.09 52 1010.6
20260509013023 47 304 0.0 2.0 0.00 0.10 0.09 55 1010.5
20260509011504 48 304 0.0 0.0 0.00 0.10 0.09 50 1010.4
20260509010007 49 304 0.0 0.0 0.00 0.10 0.09 47 1010.4
20260509004524 50 304 0.0 2.0 0.00 0.10 0.09 44 1010.4
20260509003021 51 304 0.0 2.0 0.00 0.10 0.09 40 1010.3
20260509001513 52 315 0.0 4.0 0.00 0.10 0.09 40 1010.3
20260509000011 53 302 1.0 3.0 0.00 0.10 0.09 38 1010.2
20260508234510 53 329 2.0 3.0 0.00 0.10 0.09 38 1010.2
20260508233024 53 298 2.0 4.0 0.00 0.10 0.09 38 1010.2
20260508231525 54 273 1.0 5.0 0.00 0.10 0.09 36 1010.2
20260508230045 55 297 2.0 5.0 0.00 0.10 0.09 37 1010.2
20260508224542 55 306 2.0 8.0 0.00 0.10 0.09 36 1010.2
20260508223024 55 335 3.0 6.0 0.00 0.10 0.09 35 1010.4
20260508221526 56 333 1.0 8.0 0.00 0.10 0.09 34 1010.3
20260508220031 56 327 3.0 8.0 0.00 0.10 0.09 36 1010.3
20260508214527 56 13 4.0 9.0 0.00 0.10 0.09 38 1010.3
20260508213021 56 301 3.0 9.0 0.00 0.10 0.09 35 1010.3
20260508211525 57 296 2.0 8.0 0.00 0.10 0.09 35 1010.3
20260508210020 57 292 2.0 9.0 0.00 0.10 0.09 39 1010.4
20260508204521 56 241 3.0 10.0 0.00 0.10 0.09 38 1010.4
20260508203027 57 317 3.0 9.0 0.00 0.10 0.09 39 1010.5
20260508201530 57 323 2.0 10.0 0.00 0.10 0.09 37 1010.7
20260508200025 58 335 3.0 9.0 0.00 0.10 0.09 40 1010.9
20260508194524 58 296 3.0 8.0 0.00 0.10 0.09 41 1011.0
20260508193044 57 302 3.0 10.0 0.00 0.10 0.09 41 1011.3
20260508191525 58 330 2.0 8.0 0.00 0.10 0.09 40 1011.4
20260508190036 58 333 2.0 7.0 0.00 0.10 0.09 45 1011.5
20260508184516 58 350 2.0 9.0 0.00 0.10 0.09 46 1011.7
20260508183026 58 286 1.0 9.0 0.00 0.10 0.09 47 1011.8
20260508181527 57 286 2.0 9.0 0.00 0.10 0.09 50 1011.8
20260508180030 57 333 3.0 9.0 0.00 0.10 0.09 55 1012.0
20260508174533 57 298 3.0 7.0 0.00 0.10 0.09 51 1012.0
20260508173022 56 331 2.0 8.0 0.00 0.10 0.09 53 1012.2
20260508171519 54 151 2.0 8.0 0.00 0.10 0.09 53 1012.3
20260508170012 55 9 1.0 8.0 0.00 0.10 0.09 52 1012.3
20260508164524 55 303 2.0 11.0 0.00 0.10 0.09 58 1012.4
20260508163010 55 161 2.0 7.0 0.00 0.10 0.09 52 1012.5
20260508161534 57 40 1.0 11.0 0.00 0.10 0.09 57 1012.8
20260508160007 54 223 2.0 8.0 0.00 0.10 0.09 57 1012.9
20260508154505 54 287 2.0 7.0 0.00 0.10 0.09 64 1012.8
20260508153012 52 257 2.0 5.0 0.00 0.10 0.09 67 1012.9
20260508151522 50 231 2.0 7.0 0.00 0.10 0.09 67 1012.9
20260508150012 49 265 2.0 7.0 0.00 0.10 0.09 73 1013.1
20260508144512 49 360 1.0 7.0 0.00 0.10 0.09 75 1012.9
20260508143011 47 273 2.0 4.0 0.00 0.10 0.09 79 1012.9
20260508141510 47 264 0.0 4.0 0.01 0.10 0.09 76 1013.0
20260508140004 44 222 0.0 2.0 0.01 0.10 0.09 86 1013.0
20260508134521 43 12 0.0 0.0 0.01 0.10 0.09 86 1013.0
20260508133010 42 22 0.0 0.0 0.01 0.10 0.09 88 1012.9
20260508131525 42 22 0.0 1.0 0.01 0.09 0.08 89 1012.9
20260508130012 41 22 0.0 2.0 0.01 0.09 0.08 89 1012.8
20260508124531 41 22 0.0 2.0 0.01 0.09 0.08 88 1013.0
20260508123011 41 22 0.0 2.0 0.02 0.09 0.08 87 1012.9
20260508121525 42 22 0.0 3.0 0.04 0.08 0.07 88 1013.0
20260508120010 41 14 1.0 4.0 0.05 0.08 0.07 88 1012.7